Wind_Speed
28 29 29 30 30 31 31 31 32 31 31 31 31 30 30 30 31 31 30 30 30 30 30 29 29 28 29 29 28 28 29 30 29 28 28 29 29 29
29 30 30 31 31 32 32 31 31 31 30 30 30 30 30 30 31 31 31 31 30 30 30 30 29 29 29 29 29 28 29 31 30 28 28 28 29 29
30 31 31 31 31 31 31 31 31 31 30 30 31 30 30 31 30 32 32 32 31 30 30 31 30 30 30 30 30 29 29 30 31 30 29 29 29 30
29 30 30 30 30 30 30 30 31 31 31 31 31 31 31 31 31 31 31 32 31 31 31 31 31 30 30 30 30 30 30 31 32 31 31 31 30 30
28 28 28 28 28 29 29 30 30 30 31 31 32 32 32 32 32 32 32 32 31 31 32 32 31 31 31 31 31 31 31 32 32 32 32 31 30 30
27 27 27 27 27 28 29 29 29 30 31 31 31 31 32 32 32 33 32 31 31 32 32 32 32 31 31 31 31 31 32 32 33 34 33 32 31 31
26 27 27 27 28 28 28 28 29 29 30 30 30 30 31 32 32 32 32 31 32 32 32 33 33 32 31 31 31 32 32 33 33 33 33 32 31 32
26 27 27 28 28 28 28 29 29 29 29 29 29 29 30 30 31 32 32 31 31 31 32 32 32 31 31 31 31 32 32 32 32 32 33 32 32 32
25 26 27 28 28 29 29 29 29 29 28 28 28 29 29 29 30 30 30 30 30 30 31 31 31 31 31 31 31 31 31 31 32 32 32 33 33 33
25 25 26 26 27 27 27 27 28 27 27 27 28 28 28 28 28 29 28 28 29 29 30 29 29 30 30 30 31 31 32 32 32 32 32 32 32 32
23 23 24 25 25 26 26 26 27 27 27 27 27 28 28 28 28 28 28 29 29 29 29 29 29 30 30 30 30 31 31 32 32 32 31 31 32 32
22 22 23 24 24 24 25 25 25 25 26 26 27 27 27 27 27 27 28 28 28 29 29 29 29 30 30 30 31 31 31 30 31 31 31 32 32 32
22 23 23 23 23 23 23 23 24 24 24 25 25 25 25 25 26 26 27 28 28 28 29 29 29 29 29 29 30 30 30 30 31 31 32 32 32 32
22 23 23 23 22 22 22 23 23 24 24 24 24 24 24 25 25 25 25 26 28 28 29 29 29 28 28 28 28 28 29 30 31 31 32 32 31 31
21 22 23 23 24 23 23 22 23 23 23 23 22 23 23 22 22 23 23 24 25 26 27 27 27 27 27 27 27 27 28 29 30 31 31 31 31 31
21 21 21 22 22 22 22 22 22 22 23 22 21 21 21 21 21 21 22 22 22 23 24 25 26 25 26 26 26 26 27 28 29 29 29 30 30 30
21 21 21 21 21 22 21 21 21 21 21 20 19 19 20 20 20 20 21 21 21 21 21 22 24 25 25 26 26 26 26 26 26 27 27 28 29 30
21 21 21 21 21 21 21 20 19 19 19 20 19 20 20 20 21 21 21 21 20 20 20 21 22 23 24 25 25 26 26 26 26 26 27 28 28 28
21 21 21 21 21 21 20 20 20 19 19 20 20 20 20 20 21 21 21 20 20 20 21 22 23 23 23 23 24 25 25 26 26 26 27 28 28 28
20 20 20 19 19 19 19 19 19 19 19 19 19 19 20 20 21 21 21 21 21 21 22 22 23 24 24 24 24 24 24 25 25 25 26 27 28 28
19 19 19 18 18 18 18 18 18 18 18 19 19 19 20 21 21 21 21 21 21 22 22 23 23 24 24 24 24 24 24 24 24 25 26 26 27 27
19 19 19 19 18 18 18 18 18 18 18 18 18 19 19 20 21 22 21 21 22 22 22 22 23 23 24 24 23 23 23 23 23 24 25 26 27 26
18 18 19 19 19 19 19 19 19 19 19 20 20 20 20 20 21 21 22 22 23 23 22 22 22 23 23 22 22 23 23 23 23 24 25 25 26 26
Wind_Direction
269 267 267 267 267 266 265 263 263 263 264 264 264 263 261 259 256 255 254 253 254 255 254 254 255 257 257 258 258 256 252 250 248 250 252 252 251 251
269 267 267 269 268 265 264 264 264 262 261 262 262 262 260 259 257 256 253 253 253 254 254 255 256 257 260 258 257 258 254 249 247 249 251 252 251 251
270 268 267 269 267 265 264 264 263 263 262 261 261 261 260 259 259 256 255 255 255 255 255 255 256 257 258 257 256 259 256 251 248 249 251 252 251 251
271 269 268 268 266 265 265 265 264 264 263 261 261 261 261 260 261 259 258 256 255 255 255 255 256 257 257 257 257 257 257 252 250 249 251 251 250 250
272 270 268 266 266 266 266 265 264 264 262 261 260 261 260 259 260 259 257 256 255 254 255 256 256 257 257 257 257 257 257 253 251 250 251 251 252 251
272 269 267 265 266 267 266 265 264 263 262 262 261 261 260 259 258 257 256 257 256 255 255 254 255 256 257 257 258 258 256 253 251 251 251 253 253 253
272 270 269 268 268 268 266 267 266 264 264 264 262 262 261 260 258 258 258 258 257 256 255 254 255 256 256 257 257 257 255 253 253 253 251 251 252 253
274 272 271 270 268 267 268 268 269 267 265 265 263 262 262 260 260 260 258 257 256 255 255 254 254 255 256 257 257 257 255 253 252 252 252 251 252 253
275 274 273 271 270 269 268 267 267 265 265 265 264 262 261 262 261 259 257 256 254 254 254 254 256 257 257 257 257 258 256 253 252 252 253 253 254 253
278 274 272 270 270 270 268 267 267 266 265 264 264 262 262 263 261 258 256 255 253 252 253 254 256 257 257 256 256 257 256 253 252 254 254 254 255 254
280 277 275 273 273 272 269 268 268 267 266 265 263 263 263 261 261 258 256 254 253 251 251 253 254 255 256 255 256 256 256 254 253 254 254 254 254 255
279 279 277 275 275 274 271 269 268 268 267 264 264 264 261 260 259 257 256 254 252 251 251 253 254 254 254 254 255 255 255 254 252 252 254 255 255 257
281 279 277 276 275 273 271 270 269 268 267 265 264 263 261 259 257 256 255 254 252 253 253 253 254 254 254 255 254 253 255 255 254 253 255 257 258 259
280 280 278 275 274 274 272 271 270 269 267 266 264 263 261 261 259 256 255 254 253 252 252 254 254 254 255 254 254 253 254 255 254 255 256 257 258 260
280 281 278 274 273 273 272 272 272 271 271 270 265 263 262 260 257 255 254 253 253 252 252 253 253 253 253 253 254 254 255 255 256 257 257 256 258 260
283 282 282 278 275 272 272 273 273 272 271 269 265 263 261 258 256 256 255 254 253 251 252 253 252 251 252 252 253 256 257 258 259 259 258 257 257 258
282 281 281 279 277 277 276 273 272 271 269 267 264 260 259 258 256 258 256 253 252 251 253 254 252 252 251 251 253 256 259 260 261 260 259 258 259 259
282 282 281 280 279 278 278 275 273 272 269 266 263 259 259 258 256 257 258 255 252 252 254 256 256 255 254 253 254 256 258 260 261 261 261 261 261 262
283 280 280 278 278 276 275 275 273 273 269 267 265 260 260 260 259 258 257 255 253 252 255 257 257 257 255 254 256 257 259 262 263 263 262 262 263 264
283 280 278 278 277 276 273 272 271 271 270 267 266 264 262 262 261 260 259 256 254 254 255 257 257 256 255 256 258 258 260 262 263 265 264 263 264 265
284 281 278 278 276 275 273 271 270 269 268 266 264 264 263 263 261 260 259 257 256 256 256 257 256 256 255 257 260 261 262 263 264 265 265 265 266 267
285 282 279 275 273 271 272 271 269 267 266 265 264 264 264 263 260 258 258 259 259 258 258 259 258 257 257 258 261 262 263 264 266 267 268 268 267 268
288 285 280 275 272 269 270 269 268 265 265 266 265 265 266 264 260 258 257 258 259 258 258 259 258 258 258 258 260 262 263 265 267 267 268 268 266 267
Height
5768 5768 5768 5768 5769 5769 5769 5769 5770 5771 5771 5771 5771 5772 5773 5773 5775 5776 5778 5779 5781 5783 5784 5786 5787 5789 5790 5791 5792 5793 5795 5797 5799 5801 5802 5804 5806 5807
5760 5760 5760 5760 5760 5760 5760 5760 5761 5762 5762 5763 5763 5763 5764 5765 5766 5767 5769 5770 5772 5774 5775 5777 5779 5780 5782 5783 5784 5785 5786 5788 5790 5792 5794 5796 5798 5800
5751 5751 5751 5751 5751 5751 5752 5752 5752 5753 5754 5754 5754 5755 5756 5756 5757 5758 5759 5761 5763 5765 5767 5769 5770 5772 5773 5774 5775 5776 5777 5779 5782 5784 5786 5788 5789 5792
5742 5742 5742 5742 5742 5742 5743 5743 5743 5744 5744 5745 5746 5746 5747 5747 5748 5749 5750 5751 5753 5756 5758 5760 5762 5763 5765 5766 5767 5768 5769 5771 5773 5775 5778 5780 5781 5783
5734 5734 5734 5734 5734 5734 5734 5734 5734 5734 5735 5735 5736 5737 5737 5738 5739 5740 5741 5742 5744 5746 5748 5750 5752 5754 5756 5757 5758 5759 5760 5762 5764 5767 5769 5771 5773 5774
5726 5726 5726 5725 5726 5725 5725 5725 5724 5724 5725 5726 5726 5727 5728 5728 5729 5730 5731 5733 5735 5736 5738 5741 5743 5745 5746 5748 5750 5751 5752 5753 5755 5758 5760 5762 5764 5766
5718 5718 5717 5717 5717 5717 5717 5716 5716 5715 5716 5716 5717 5718 5718 5719 5720 5720 5722 5723 5725 5727 5729 5732 5734 5736 5737 5739 5740 5741 5743 5744 5746 5748 5751 5753 5756 5758
5710 5710 5709 5709 5709 5708 5708 5708 5707 5707 5707 5707 5708 5708 5709 5709 5710 5711 5712 5714 5716 5719 5720 5722 5724 5726 5728 5730 5731 5732 5734 5736 5738 5740 5742 5745 5747 5749
5703 5702 5701 5700 5700 5700 5699 5699 5699 5698 5698 5698 5699 5699 5700 5701 5701 5702 5702 5704 5707 5709 5711 5713 5715 5717 5719 5721 5722 5724 5725 5727 5729 5732 5734 5736 5738 5740
5695 5694 5693 5692 5692 5691 5691 5691 5690 5690 5690 5690 5690 5691 5691 5691 5691 5693 5694 5695 5698 5700 5702 5704 5706 5708 5710 5712 5713 5715 5717 5719 5721 5723 5725 5727 5729 5731
5687 5686 5685 5685 5684 5683 5683 5683 5682 5682 5681 5681 5681 5681 5682 5682 5683 5684 5685 5687 5689 5692 5694 5696 5698 5699 5701 5703 5705 5706 5708 5710 5712 5714 5716 5718 5720 5721
5680 5679 5678 5677 5676 5675 5675 5674 5674 5674 5673 5673 5673 5673 5673 5673 5674 5675 5677 5679 5681 5683 5685 5687 5689 5691 5693 5694 5696 5697 5699 5701 5703 5705 5707 5709 5710 5712
5673 5672 5671 5670 5669 5668 5667 5667 5666 5666 5665 5665 5665 5664 5665 5665 5666 5667 5669 5670 5673 5675 5677 5679 5681 5682 5684 5686 5687 5688 5690 5692 5694 5696 5697 5699 5701 5702
5667 5665 5664 5663 5662 5661 5660 5659 5658 5657 5657 5657 5656 5657 5657 5657 5658 5659 5660 5662 5664 5666 5668 5670 5672 5674 5676 5677 5679 5680 5681 5683 5685 5687 5689 5690 5692 5693
5659 5658 5657 5656 5654 5653 5652 5651 5651 5650 5650 5649 5649 5650 5650 5650 5651 5652 5653 5654 5656 5658 5660 5662 5664 5665 5667 5669 5671 5672 5673 5675 5676 5678 5679 5681 5683 5684
5652 5651 5649 5648 5647 5646 5645 5644 5643 5643 5642 5642 5642 5643 5643 5643 5644 5645 5646 5648 5649 5651 5652 5654 5655 5657 5659 5661 5662 5664 5665 5666 5667 5669 5670 5672 5673 5675
5645 5644 5643 5641 5640 5639 5638 5637 5636 5636 5635 5635 5635 5636 5636 5637 5638 5639 5640 5641 5642 5644 5645 5647 5648 5649 5651 5653 5654 5656 5657 5658 5659 5660 5661 5663 5664 5666
5638 5637 5636 5634 5633 5632 5631 5630 5630 5629 5629 5629 5629 5629 5630 5631 5632 5633 5634 5635 5636 5637 5639 5640 5641 5642 5644 5645 5647 5648 5649 5650 5651 5651 5652 5654 5655 5657
5631 5630 5629 5628 5626 5625 5624 5624 5623 5623 5623 5623 5623 5623 5624 5624 5625 5626 5627 5628 5629 5631 5632 5633 5634 5635 5637 5638 5639 5640 5641 5642 5642 5643 5644 5645 5647 5648
5624 5623 5622 5621 5620 5619 5618 5617 5617 5617 5616 5616 5617 5617 5618 5618 5619 5620 5621 5622 5623 5624 5625 5626 5627 5628 5629 5631 5632 5632 5633 5634 5634 5635 5636 5637 5638 5639
5618 5616 5615 5614 5613 5612 5612 5611 5611 5610 5610 5610 5611 5611 5611 5612 5613 5613 5614 5615 5616 5617 5618 5619 5620 5620 5621 5623 5624 5625 5625 5626 5627 5627 5628 5629 5630 5631
5611 5610 5609 5608 5607 5606 5605 5605 5604 5604 5604 5604 5605 5605 5605 5605 5606 5607 5607 5608 5609 5610 5611 5612 5612 5613 5614 5615 5616 5617 5617 5618 5619 5619 5620 5621 5621 5622
5605 5603 5602 5601 5600 5599 5599 5598 5598 5598 5598 5598 5598 5598 5599 5599 5599 5600 5600 5601 5602 5603 5604 5604 5605 5606 5607 5608 5608 5609 5610 5610 5610 5611 5612 5613 5613 5614